| time (UTC) | temp F | wind direction | speed knots | gust knots | rain 1hr in | rain 24hr in | rain mn in | humidity % | barometer mb |
| 20260510051647 | 69 | 33 | 0.9 | 3.5 | 0.00 | 0.00 | 0.00 | 98 | 1011.9 |
| 20260510051146 | 69 | 355 | 1.7 | 3.5 | 0.00 | 0.00 | 0.00 | 98 | 1011.9 |
| 20260510050646 | 69 | 142 | 1.7 | 2.6 | 0.00 | 0.00 | 0.00 | 98 | 1011.9 |
| 20260510050146 | 69 | 143 | 1.7 | 4.3 | 0.00 | 0.00 | 0.00 | 98 | 1011.9 |
| 20260510045648 | 69 | 128 | 2.6 | 5.2 | 0.00 | 0.00 | 1.64 | 98 | 1011.9 |
| 20260510045146 | 69 | 146 | 1.7 | 5.2 | 0.00 | 0.00 | 1.64 | 99 | 1012.2 |
| 20260510044647 | 69 | 154 | 6.1 | 7.8 | 0.00 | 0.00 | 1.64 | 99 | 1011.9 |
| 20260510044146 | 69 | 155 | 1.7 | 4.3 | 0.00 | 0.00 | 1.64 | 99 | 1011.9 |
| 20260510043647 | 69 | 0 | 1.7 | 2.6 | 0.00 | 0.00 | 1.64 | 99 | 1012.2 |
| 20260510043146 | 69 | 107 | 0.0 | 2.6 | 0.00 | 0.00 | 1.64 | 99 | 1012.2 |
| 20260510042646 | 69 | 35 | 1.7 | 3.5 | 0.00 | 0.00 | 1.64 | 99 | 1012.5 |
| 20260510042147 | 69 | 147 | 2.6 | 6.1 | 0.00 | 0.00 | 1.64 | 99 | 1012.2 |
| 20260510041646 | 69 | 112 | 3.5 | 5.2 | 0.00 | 0.00 | 1.64 | 99 | 1012.2 |
| 20260510041146 | 69 | 142 | 2.6 | 7.0 | 0.00 | 0.00 | 1.64 | 99 | 1011.9 |
| 20260510040646 | 69 | 170 | 5.2 | 8.7 | 0.00 | 0.00 | 1.64 | 99 | 1012.2 |
| 20260510040147 | 69 | 162 | 4.3 | 10.4 | 0.00 | 0.00 | 1.64 | 99 | 1011.9 |
| 20260510035647 | 69 | 160 | 6.1 | 9.6 | 0.00 | 0.00 | 1.64 | 99 | 1012.2 |
| 20260510035146 | 69 | 174 | 6.1 | 7.8 | 0.00 | 0.00 | 1.64 | 99 | 1012.5 |
| 20260510034646 | 68 | 172 | 5.2 | 8.7 | 0.00 | 0.00 | 1.64 | 99 | 1012.5 |
| 20260510034146 | 68 | 165 | 5.2 | 6.1 | 0.00 | 0.00 | 1.64 | 99 | 1012.9 |
| 20260510033646 | 68 | 139 | 2.6 | 6.1 | 0.00 | 0.00 | 1.64 | 99 | 1012.9 |
| 20260510033146 | 68 | 176 | 2.6 | 4.3 | 0.00 | 0.00 | 1.64 | 99 | 1012.9 |
| 20260510032646 | 68 | 173 | 2.6 | 5.2 | 0.00 | 0.00 | 1.64 | 99 | 1012.9 |
| 20260510032146 | 68 | 157 | 2.6 | 4.3 | 0.00 | 0.00 | 1.64 | 99 | 1012.9 |
| 20260510031647 | 68 | 199 | 3.5 | 3.5 | 0.00 | 0.00 | 1.64 | 99 | 1013.2 |
| 20260510031147 | 68 | 189 | 1.7 | 3.5 | 0.00 | 0.00 | 1.64 | 99 | 1012.9 |
| 20260510030646 | 68 | 208 | 1.7 | 2.6 | 0.00 | 0.00 | 1.64 | 99 | 1013.2 |
| 20260510030148 | 68 | 180 | 1.7 | 2.6 | 0.00 | 0.00 | 1.64 | 99 | 1013.2 |
| 20260510025647 | 68 | 347 | 1.7 | 2.6 | 0.00 | 0.00 | 1.64 | 99 | 1012.9 |
| 20260510025146 | 68 | 293 | 1.7 | 2.6 | 0.00 | 0.00 | 1.64 | 99 | 1012.9 |
| 20260510024646 | 68 | 186 | 1.7 | 2.6 | 0.00 | 0.00 | 1.64 | 99 | 1012.9 |
| 20260510024147 | 68 | 184 | 2.6 | 4.3 | 0.00 | 0.00 | 1.64 | 99 | 1012.9 |
| 20260510023646 | 68 | 228 | 2.6 | 6.1 | 0.00 | 0.00 | 1.64 | 99 | 1012.9 |
| 20260510023146 | 68 | 200 | 2.6 | 4.3 | 0.00 | 0.00 | 1.64 | 99 | 1012.5 |
| 20260510022646 | 68 | 251 | 0.9 | 3.5 | 0.00 | 0.00 | 1.64 | 99 | 1012.5 |
| 20260510022146 | 68 | 143 | 2.6 | 4.3 | 0.00 | 0.00 | 1.64 | 98 | 1012.5 |
| 20260510021646 | 69 | 193 | 2.6 | 4.3 | 0.00 | 0.00 | 1.64 | 98 | 1012.5 |
| 20260510021147 | 69 | 180 | 1.7 | 3.5 | 0.00 | 0.00 | 1.64 | 98 | 1012.5 |
| 20260510020646 | 69 | 180 | 2.6 | 4.3 | 0.00 | 0.00 | 1.64 | 98 | 1012.5 |
| 20260510020147 | 69 | 174 | 2.6 | 4.3 | 0.00 | 0.00 | 1.64 | 98 | 1012.5 |
| 20260510015646 | 69 | 127 | 2.6 | 3.5 | 0.00 | 0.00 | 1.64 | 98 | 1012.5 |
| 20260510015148 | 69 | 162 | 2.6 | 7.8 | 0.00 | 0.00 | 1.64 | 98 | 1012.5 |
| 20260510014646 | 69 | 153 | 3.5 | 8.7 | 0.00 | 0.00 | 1.64 | 98 | 1012.2 |
| 20260510014146 | 69 | 189 | 0.9 | 5.2 | 0.00 | 0.00 | 1.64 | 99 | 1012.2 |
| 20260510013646 | 69 | 180 | 0.9 | 4.3 | 0.00 | 0.00 | 1.64 | 99 | 1012.2 |
| 20260510013146 | 69 | 105 | 3.5 | 6.1 | 0.00 | 0.00 | 1.64 | 99 | 1012.2 |
| 20260510012648 | 69 | 139 | 4.3 | 7.0 | 0.00 | 0.00 | 1.64 | 99 | 1011.9 |
| 20260510012146 | 69 | 155 | 2.6 | 7.0 | 0.00 | 0.00 | 1.64 | 99 | 1011.9 |
| 20260510011647 | 69 | 192 | 2.6 | 8.7 | 0.00 | 0.00 | 1.64 | 99 | 1011.9 |
| 20260510011146 | 69 | 184 | 6.1 | 7.0 | 0.00 | 0.00 | 1.64 | 99 | 1011.9 |
| 20260510010647 | 69 | 6 | 0.9 | 5.2 | 0.00 | 0.00 | 1.64 | 99 | 1011.9 |
| 20260510010146 | 69 | 143 | 4.3 | 7.8 | 0.00 | 0.00 | 1.64 | 99 | 1011.9 |
| 20260510005647 | 69 | 173 | 3.5 | 4.3 | 0.00 | 0.00 | 1.64 | 99 | 1011.9 |
| 20260510005148 | 69 | 155 | 1.7 | 9.6 | 0.00 | 0.00 | 1.64 | 99 | 1011.9 |
| 20260510004647 | 69 | 192 | 3.5 | 7.8 | 0.00 | 0.00 | 1.64 | 99 | 1012.2 |
| 20260510004147 | 69 | 209 | 3.5 | 8.7 | 0.05 | 0.00 | 1.64 | 99 | 1011.9 |
| 20260510003647 | 69 | 119 | 4.3 | 7.0 | 0.05 | 0.00 | 1.64 | 99 | 1011.9 |
| 20260510003147 | 69 | 100 | 1.7 | 5.2 | 0.00 | 0.00 | 1.63 | 99 | 1011.9 |
| 20260510002647 | 69 | 144 | 5.2 | 6.1 | 0.00 | 0.00 | 1.63 | 99 | 1011.9 |
| 20260510002147 | 69 | 146 | 2.6 | 4.3 | 0.00 | 0.00 | 1.63 | 99 | 1011.9 |
| 20260510001646 | 69 | 171 | 1.7 | 4.3 | 0.00 | 0.00 | 1.63 | 99 | 1011.9 |
| 20260510001147 | 69 | 179 | 0.0 | 4.3 | 0.00 | 0.00 | 1.63 | 99 | 1011.9 |
| 20260510000647 | 69 | 161 | 2.6 | 5.2 | 0.00 | 0.00 | 1.63 | 99 | 1011.9 |
| 20260510000146 | 69 | 178 | 1.7 | 4.3 | 0.00 | 0.00 | 1.63 | 99 | 1011.9 |
| 20260509235646 | 69 | 177 | 1.7 | 5.2 | 0.00 | 0.00 | 1.63 | 99 | 1011.9 |
| 20260509235146 | 69 | 151 | 1.7 | 5.2 | 0.00 | 0.00 | 1.63 | 99 | 1011.9 |
| 20260509234647 | 69 | 182 | 2.6 | 3.5 | 0.00 | 0.00 | 1.63 | 99 | 1011.9 |
| 20260509234146 | 69 | 170 | 2.6 | 5.2 | 0.00 | 0.00 | 1.63 | 99 | 1011.9 |
| 20260509233646 | 69 | 142 | 1.7 | 4.3 | 0.02 | 0.00 | 1.63 | 99 | 1011.9 |
| 20260509233146 | 69 | 127 | 1.7 | 3.5 | 0.07 | 0.00 | 1.63 | 99 | 1011.5 |
| 20260509232646 | 69 | 126 | 1.7 | 5.2 | 0.07 | 0.00 | 1.63 | 99 | 1011.9 |
| 20260509232146 | 69 | 30 | 1.7 | 2.6 | 0.09 | 0.00 | 1.62 | 99 | 1011.9 |
| 20260509231647 | 69 | 208 | 0.0 | 2.6 | 0.07 | 0.00 | 1.61 | 99 | 1012.2 |
| 20260509231146 | 69 | 207 | 1.7 | 4.3 | 0.05 | 0.00 | 1.61 | 99 | 1011.9 |
| 20260509230647 | 69 | 156 | 4.3 | 6.1 | 0.07 | 0.00 | 1.60 | 99 | 1011.9 |
| 20260509230147 | 69 | 143 | 5.2 | 6.1 | 0.09 | 0.00 | 1.60 | 99 | 1011.9 |
| 20260509225646 | 69 | 170 | 2.6 | 4.3 | 0.05 | 0.00 | 1.59 | 99 | 1011.9 |
| 20260509225146 | 69 | 166 | 4.3 | 6.1 | 0.02 | 0.00 | 1.58 | 99 | 1012.2 |
| 20260509224647 | 69 | 170 | 3.5 | 4.3 | 0.02 | 0.00 | 1.58 | 99 | 1012.2 |
| 20260509224146 | 69 | 172 | 4.3 | 4.3 | 0.00 | 0.00 | 1.58 | 99 | 1011.9 |
| 20260509223648 | 69 | 170 | 3.5 | 4.3 | 0.00 | 0.00 | 1.58 | 99 | 1011.9 |
| 20260509223147 | 69 | 171 | 3.5 | 4.3 | 0.00 | 0.00 | 1.58 | 99 | 1011.9 |
| 20260509222646 | 69 | 167 | 3.5 | 6.1 | 0.00 | 0.00 | 1.58 | 98 | 1011.5 |
| 20260509222147 | 69 | 176 | 3.5 | 5.2 | 0.02 | 0.00 | 1.58 | 98 | 1011.5 |
| 20260509221647 | 70 | 144 | 2.6 | 4.3 | 0.02 | 0.00 | 1.58 | 98 | 1011.2 |
| 20260509221146 | 70 | 254 | 0.0 | 2.6 | 0.00 | 0.00 | 1.57 | 98 | 1011.2 |
| 20260509220646 | 69 | 0 | 0.0 | 1.7 | 0.00 | 0.00 | 1.57 | 98 | 1010.8 |
| 20260509220146 | 69 | 201 | 1.7 | 2.6 | 0.02 | 0.00 | 1.57 | 98 | 1011.2 |
| 20260509215646 | 70 | 315 | 0.0 | 1.7 | 0.02 | 0.00 | 1.57 | 98 | 1011.2 |
| 20260509215146 | 69 | 195 | 0.0 | 3.5 | 0.02 | 0.00 | 1.57 | 98 | 1011.5 |
| 20260509214647 | 69 | 189 | 2.6 | 2.6 | 0.02 | 0.00 | 1.57 | 98 | 1011.2 |
| 20260509214146 | 69 | 203 | 0.9 | 4.3 | 0.02 | 0.00 | 1.57 | 98 | 1011.5 |
| 20260509213647 | 69 | 179 | 3.5 | 7.8 | 0.00 | 0.00 | 1.56 | 98 | 1011.5 |
| 20260509213146 | 69 | 186 | 5.2 | 7.8 | 0.00 | 0.00 | 1.56 | 98 | 1011.2 |
| 20260509212646 | 69 | 172 | 4.3 | 7.8 | 0.00 | 0.00 | 1.56 | 98 | 1011.2 |
| 20260509212147 | 69 | 168 | 6.1 | 9.6 | 0.00 | 0.00 | 1.56 | 97 | 1011.2 |
| 20260509211646 | 69 | 154 | 4.3 | 5.2 | 0.00 | 0.00 | 1.56 | 97 | 1011.2 |
| 20260509211147 | 69 | 169 | 5.2 | 9.6 | 0.00 | 0.00 | 1.56 | 97 | 1011.2 |
| 20260509210649 | 69 | 138 | 3.5 | 7.8 | 0.00 | 0.00 | 1.56 | 97 | 1010.8 |
| 20260509210146 | 69 | 155 | 5.2 | 7.8 | 0.00 | 0.00 | 1.56 | 97 | 1011.2 |
| 20260509205646 | 69 | 180 | 2.6 | 4.3 | 0.00 | 0.00 | 1.56 | 98 | 1011.2 |
| 20260509205146 | 69 | 349 | 1.7 | 3.5 | 0.00 | 0.00 | 1.56 | 98 | 1010.8 |
| 20260509204646 | 69 | 102 | 0.9 | 4.3 | 0.00 | 0.00 | 1.56 | 98 | 1010.8 |
| 20260509204147 | 69 | 150 | 3.5 | 5.2 | 0.00 | 0.00 | 1.56 | 99 | 1010.8 |
| 20260509203646 | 69 | 227 | 2.6 | 7.0 | 0.00 | 0.00 | 1.56 | 99 | 1011.2 |
| 20260509203147 | 69 | 133 | 3.5 | 4.3 | 0.00 | 0.00 | 1.56 | 99 | 1010.8 |
| 20260509202647 | 69 | 168 | 1.7 | 5.2 | 0.00 | 0.00 | 1.56 | 99 | 1011.2 |
| 20260509202147 | 69 | 348 | 2.6 | 4.3 | 0.00 | 0.00 | 1.56 | 99 | 1011.5 |
| 20260509201646 | 69 | 253 | 0.9 | 3.5 | 0.00 | 0.00 | 1.56 | 99 | 1011.5 |
| 20260509201147 | 68 | 177 | 1.7 | 3.5 | 0.02 | 0.00 | 1.56 | 99 | 1011.9 |
| 20260509200646 | 68 | 161 | 3.5 | 4.3 | 0.02 | 0.00 | 1.56 | 99 | 1012.2 |
| 20260509200146 | 68 | 159 | 1.7 | 4.3 | 0.05 | 0.00 | 1.56 | 99 | 1012.2 |
| 20260509195646 | 68 | 84 | 1.7 | 5.2 | 0.09 | 0.00 | 1.56 | 99 | 1012.2 |
| 20260509195146 | 68 | 308 | 0.9 | 4.3 | 0.12 | 0.00 | 1.55 | 99 | 1012.2 |
| 20260509194646 | 68 | 177 | 3.5 | 6.1 | 0.14 | 0.00 | 1.54 | 99 | 1011.9 |
| 20260509194147 | 68 | 176 | 1.7 | 5.2 | 0.12 | 0.00 | 1.53 | 99 | 1011.9 |
| 20260509193646 | 68 | 175 | 1.7 | 5.2 | 0.09 | 0.00 | 1.52 | 99 | 1012.2 |
| 20260509193146 | 68 | 184 | 1.7 | 4.3 | 0.07 | 0.00 | 1.51 | 99 | 1012.2 |
| 20260509192647 | 68 | 147 | 2.6 | 3.5 | 0.05 | 0.00 | 1.50 | 99 | 1012.2 |
| 20260509192147 | 68 | 10 | 0.9 | 2.6 | 0.02 | 0.00 | 1.50 | 99 | 1012.5 |
| 20260509191647 | 68 | 289 | 1.7 | 2.6 | 0.05 | 0.00 | 1.50 | 99 | 1012.5 |
| 20260509191146 | 68 | 261 | 0.0 | 3.5 | 0.09 | 0.00 | 1.49 | 99 | 1012.9 |
| 20260509190647 | 68 | 214 | 2.6 | 5.2 | 0.07 | 0.00 | 1.48 | 99 | 1012.9 |
| 20260509190147 | 68 | 173 | 0.9 | 5.2 | 0.05 | 0.00 | 1.48 | 99 | 1012.9 |
| 20260509185648 | 67 | 169 | 3.5 | 4.3 | 0.09 | 0.00 | 1.47 | 99 | 1012.9 |
| 20260509185147 | 67 | 249 | 0.9 | 4.3 | 0.12 | 0.00 | 1.47 | 99 | 1012.5 |
| 20260509184647 | 67 | 156 | 3.5 | 4.3 | 0.07 | 0.00 | 1.46 | 99 | 1012.5 |
| 20260509184147 | 67 | 292 | 0.9 | 4.3 | 0.05 | 0.00 | 1.45 | 99 | 1012.5 |
| 20260509183647 | 67 | 200 | 2.6 | 3.5 | 0.09 | 0.00 | 1.45 | 99 | 1012.2 |
| 20260509183146 | 67 | 22 | 0.0 | 3.5 | 0.14 | 0.00 | 1.44 | 99 | 1012.2 |
| 20260509182647 | 67 | 340 | 1.7 | 5.2 | 0.12 | 0.00 | 1.43 | 99 | 1012.5 |
| 20260509182147 | 67 | 190 | 5.2 | 5.2 | 0.09 | 0.00 | 1.42 | 99 | 1012.9 |
| 20260509181646 | 67 | 147 | 4.3 | 7.8 | 0.07 | 0.00 | 1.41 | 99 | 1012.9 |
| 20260509181147 | 67 | 177 | 2.6 | 6.1 | 0.02 | 0.00 | 1.40 | 99 | 1012.5 |
| 20260509180646 | 67 | 182 | 2.6 | 6.1 | 0.02 | 0.00 | 1.40 | 99 | 1012.9 |
| 20260509180146 | 67 | 148 | 3.5 | 3.5 | 0.02 | 0.00 | 1.40 | 99 | 1012.5 |
| 20260509175646 | 67 | 344 | 1.7 | 4.3 | 0.02 | 0.00 | 1.39 | 99 | 1012.5 |
| 20260509175147 | 67 | 297 | 2.6 | 4.3 | 0.07 | 0.00 | 1.39 | 99 | 1012.2 |
| 20260509174647 | 67 | 129 | 1.7 | 6.1 | 0.17 | 0.00 | 1.39 | 99 | 1012.5 |
| 20260509174146 | 67 | 142 | 2.6 | 5.2 | 0.17 | 0.00 | 1.38 | 99 | 1012.5 |
| 20260509173647 | 67 | 73 | 4.3 | 7.0 | 0.12 | 0.00 | 1.36 | 99 | 1011.9 |
| 20260509173146 | 67 | 4 | 2.6 | 7.0 | 0.17 | 0.00 | 1.35 | 99 | 1012.9 |
| 20260509172646 | 67 | 158 | 3.5 | 9.6 | 0.33 | 0.00 | 1.34 | 99 | 1012.9 |
| 20260509172148 | 67 | 327 | 1.7 | 4.3 | 0.33 | 0.00 | 1.32 | 99 | 1013.2 |
| 20260509171646 | 67 | 47 | 2.6 | 4.3 | 0.17 | 0.00 | 1.28 | 99 | 1013.2 |
| 20260509171147 | 67 | 52 | 1.7 | 4.3 | 0.38 | 0.00 | 1.27 | 99 | 1013.5 |
| 20260509170647 | 67 | 193 | 2.6 | 3.5 | 0.80 | 0.00 | 1.25 | 99 | 1013.2 |
| 20260509170148 | 66 | 75 | 3.5 | 5.2 | 0.85 | 0.00 | 1.20 | 99 | 1013.2 |
| 20260509165649 | 66 | 19 | 0.0 | 8.7 | 0.64 | 0.00 | 1.12 | 99 | 1013.2 |
| 20260509165146 | 66 | 107 | 2.6 | 4.3 | 0.40 | 0.00 | 1.05 | 99 | 1013.5 |
| 20260509164647 | 66 | 30 | 2.6 | 7.0 | 0.35 | 0.00 | 1.01 | 99 | 1013.2 |
| 20260509164150 | 66 | 49 | 8.7 | 10.4 | 0.28 | 0.00 | 0.98 | 99 | 1013.2 |
| 20260509163646 | 67 | 45 | 7.0 | 10.4 | 0.14 | 0.00 | 0.95 | 99 | 1013.5 |
| 20260509163148 | 66 | 41 | 6.1 | 11.3 | 0.07 | 0.00 | 0.93 | 98 | 1013.5 |
| 20260509162647 | 66 | 72 | 7.8 | 12.2 | 0.14 | 0.00 | 0.93 | 99 | 1013.2 |
| 20260509162147 | 66 | 69 | 7.8 | 13.9 | 0.17 | 0.00 | 0.92 | 99 | 1013.2 |
| 20260509161647 | 66 | 66 | 5.2 | 10.4 | 0.21 | 0.00 | 0.90 | 99 | 1013.2 |
| 20260509161150 | 66 | 50 | 7.8 | 11.3 | 0.35 | 0.00 | 0.89 | 99 | 1013.5 |
| 20260509160646 | 67 | 54 | 9.6 | 11.3 | 0.31 | 0.00 | 0.87 | 99 | 1013.5 |
| 20260509160146 | 67 | 73 | 7.0 | 11.3 | 0.17 | 0.00 | 0.83 | 99 | 1013.5 |
| 20260509155647 | 67 | 70 | 6.1 | 8.7 | 0.42 | 0.00 | 0.81 | 99 | 1013.5 |
| 20260509155149 | 67 | 25 | 1.7 | 12.2 | 0.69 | 0.00 | 0.79 | 98 | 1013.5 |
| 20260509154648 | 67 | 78 | 4.3 | 13.0 | 0.59 | 0.00 | 0.73 | 98 | 1013.2 |
| 20260509154146 | 67 | 59 | 3.5 | 7.8 | 0.50 | 0.00 | 0.68 | 97 | 1013.5 |
| 20260509153646 | 67 | 29 | 5.2 | 10.4 | 0.31 | 0.00 | 0.63 | 96 | 1013.2 |
| 20260509153147 | 68 | 6 | 4.3 | 8.7 | 0.07 | 0.00 | 0.59 | 96 | 1012.9 |
| 20260509152648 | 68 | 52 | 7.8 | 16.5 | 0.00 | 0.00 | 0.58 | 95 | 1012.9 |
| 20260509152148 | 68 | 36 | 6.1 | 13.9 | 0.00 | 0.00 | 0.58 | 95 | 1012.9 |
| 20260509151647 | 68 | 37 | 2.6 | 7.8 | 0.00 | 0.00 | 0.58 | 95 | 1013.2 |
| 20260509151149 | 68 | 12 | 4.3 | 13.0 | 0.00 | 0.00 | 0.58 | 95 | 1012.9 |
| 20260509150648 | 68 | 94 | 3.5 | 14.8 | 0.00 | 0.00 | 0.58 | 96 | 1012.9 |
| 20260509150149 | 68 | 56 | 13.0 | 15.6 | 0.00 | 0.00 | 0.58 | 96 | 1012.5 |
| 20260509145649 | 69 | 64 | 7.8 | 13.0 | 0.00 | 0.00 | 0.58 | 96 | 1012.9 |
| 20260509145148 | 69 | 23 | 4.3 | 11.3 | 0.00 | 0.00 | 0.58 | 97 | 1012.9 |
| 20260509144647 | 69 | 8 | 2.6 | 11.3 | 0.00 | 0.00 | 0.58 | 97 | 1012.9 |
| 20260509144148 | 69 | 59 | 10.4 | 16.5 | 0.02 | 0.00 | 0.58 | 98 | 1012.5 |
| 20260509143649 | 68 | 28 | 5.2 | 13.0 | 0.07 | 0.00 | 0.58 | 98 | 1012.5 |
| 20260509143147 | 68 | 42 | 7.8 | 10.4 | 0.12 | 0.00 | 0.58 | 99 | 1012.9 |
| 20260509142648 | 68 | 32 | 3.5 | 12.2 | 0.05 | 0.00 | 0.57 | 99 | 1012.5 |
| 20260509142148 | 68 | 28 | 7.0 | 12.2 | 0.02 | 0.00 | 0.56 | 99 | 1012.9 |
| 20260509141650 | 68 | 28 | 4.3 | 11.3 | 0.05 | 0.00 | 0.56 | 99 | 1013.2 |
| 20260509141148 | 68 | 28 | 6.1 | 10.4 | 0.17 | 0.00 | 0.56 | 99 | 1012.9 |
| 20260509140650 | 68 | 16 | 4.3 | 8.7 | 0.19 | 0.00 | 0.55 | 99 | 1013.2 |
| 20260509140147 | 68 | 340 | 2.6 | 4.3 | 0.17 | 0.00 | 0.53 | 99 | 1013.2 |
| 20260509135646 | 67 | 329 | 4.3 | 6.1 | 0.19 | 0.00 | 0.52 | 99 | 1013.5 |
| 20260509135151 | 67 | 299 | 7.8 | 9.6 | 0.24 | 0.00 | 0.50 | 99 | 1013.5 |
| 20260509134647 | 67 | 339 | 3.5 | 9.6 | 0.19 | 0.00 | 0.48 | 99 | 1013.2 |
| 20260509134146 | 67 | 301 | 2.6 | 7.8 | 0.42 | 0.00 | 0.46 | 99 | 1012.9 |
| 20260509133649 | 67 | 348 | 4.3 | 7.8 | 0.52 | 0.00 | 0.45 | 99 | 1012.9 |
| 20260509133151 | 67 | 328 | 6.1 | 11.3 | 0.76 | 0.00 | 0.38 | 99 | 1012.9 |
| 20260509132648 | 67 | 313 | 7.8 | 14.8 | 1.39 | 0.00 | 0.35 | 99 | 1012.9 |
| 20260509132146 | 67 | 293 | 7.8 | 13.0 | 1.53 | 0.00 | 0.26 | 98 | 1012.9 |
| 20260509131646 | 69 | 322 | 9.6 | 19.1 | 0.69 | 0.00 | 0.11 | 93 | 1012.9 |
| 20260509131149 | 75 | 346 | 7.8 | 20.0 | 0.00 | 0.00 | 0.00 | 90 | 1012.5 |
| 20260509130650 | 76 | 260 | 2.6 | 6.1 | 0.00 | 0.00 | 0.00 | 96 | 1011.9 |
| 20260509130147 | 76 | 213 | 2.6 | 4.3 | 0.00 | 0.00 | 0.00 | 96 | 1011.2 |
| 20260509125647 | 75 | 170 | 6.1 | 9.6 | 0.00 | 0.00 | 0.00 | 96 | 1010.8 |
| 20260509125147 | 75 | 189 | 6.1 | 10.4 | 0.00 | 0.00 | 0.00 | 96 | 1010.5 |
| 20260509124649 | 75 | 168 | 2.6 | 4.3 | 0.00 | 0.00 | 0.00 | 96 | 1010.8 |
| 20260509124148 | 75 | 201 | 2.6 | 7.8 | 0.00 | 0.00 | 0.00 | 96 | 1010.5 |
| 20260509123646 | 75 | 184 | 4.3 | 7.0 | 0.00 | 0.00 | 0.00 | 96 | 1010.5 |
| 20260509123149 | 75 | 162 | 6.1 | 9.6 | 0.00 | 0.00 | 0.00 | 96 | 1010.2 |
| 20260509122646 | 74 | 186 | 3.5 | 6.1 | 0.00 | 0.00 | 0.00 | 96 | 1010.5 |
| 20260509122148 | 74 | 143 | 4.3 | 7.0 | 0.00 | 0.00 | 0.00 | 96 | 1010.5 |
| 20260509121649 | 74 | 168 | 5.2 | 8.7 | 0.00 | 0.00 | 0.00 | 96 | 1010.2 |
| 20260509121147 | 73 | 178 | 5.2 | 7.8 | 0.00 | 0.00 | 0.00 | 97 | 1010.2 |
| 20260509120647 | 73 | 160 | 5.2 | 7.8 | 0.00 | 0.00 | 0.00 | 97 | 1010.2 |
| 20260509120146 | 72 | 184 | 3.5 | 6.1 | 0.00 | 0.00 | 0.00 | 96 | 1010.2 |
| 20260509115646 | 72 | 167 | 2.6 | 5.2 | 0.00 | 0.00 | 0.00 | 96 | 1010.2 |
| 20260509115147 | 72 | 165 | 2.6 | 5.2 | 0.00 | 0.00 | 0.00 | 96 | 1009.8 |
| 20260509114647 | 72 | 152 | 2.6 | 5.2 | 0.00 | 0.00 | 0.00 | 96 | 1010.2 |
| 20260509114150 | 72 | 163 | 2.6 | 4.3 | 0.00 | 0.00 | 0.00 | 96 | 1010.2 |
| 20260509113651 | 72 | 84 | 1.7 | 4.3 | 0.00 | 0.00 | 0.00 | 96 | 1009.8 |
| 20260509113150 | 72 | 150 | 1.7 | 3.5 | 0.00 | 0.00 | 0.00 | 95 | 1009.8 |
| 20260509112647 | 72 | 155 | 2.6 | 4.3 | 0.00 | 0.00 | 0.00 | 95 | 1009.8 |
| 20260509112150 | 72 | 163 | 1.7 | 3.5 | 0.00 | 0.00 | 0.00 | 95 | 1009.5 |
| 20260509111647 | 73 | 141 | 4.3 | 6.1 | 0.00 | 0.00 | 0.00 | 94 | 1009.5 |
| 20260509111148 | 73 | 185 | 2.6 | 5.2 | 0.00 | 0.00 | 0.00 | 94 | 1009.8 |
| 20260509110647 | 73 | 182 | 2.6 | 6.1 | 0.00 | 0.00 | 0.00 | 93 | 1009.8 |
| 20260509110152 | 73 | 168 | 5.2 | 6.1 | 0.00 | 0.00 | 0.00 | 93 | 1009.5 |
| 20260509105646 | 73 | 164 | 3.5 | 5.2 | 0.00 | 0.00 | 0.00 | 93 | 1009.5 |
| 20260509105148 | 73 | 168 | 3.5 | 7.0 | 0.00 | 0.00 | 0.00 | 93 | 1009.8 |
| 20260509104646 | 73 | 146 | 7.8 | 7.8 | 0.00 | 0.00 | 0.00 | 93 | 1009.5 |
| 20260509104147 | 73 | 150 | 2.6 | 7.0 | 0.00 | 0.00 | 0.00 | 93 | 1009.1 |
| 20260509103646 | 73 | 194 | 2.6 | 7.0 | 0.00 | 0.00 | 0.00 | 92 | 1009.8 |
| 20260509103146 | 73 | 176 | 4.3 | 6.1 | 0.00 | 0.00 | 0.00 | 92 | 1009.5 |
| 20260509102647 | 73 | 139 | 5.2 | 9.6 | 0.00 | 0.00 | 0.00 | 92 | 1009.1 |
| 20260509102146 | 73 | 147 | 7.8 | 11.3 | 0.00 | 0.00 | 0.00 | 92 | 1008.8 |
| 20260509101647 | 73 | 175 | 6.1 | 8.7 | 0.00 | 0.00 | 0.00 | 92 | 1009.1 |
| 20260509101150 | 73 | 172 | 3.5 | 10.4 | 0.00 | 0.00 | 0.00 | 91 | 1009.1 |
| 20260509100651 | 72 | 150 | 7.8 | 12.2 | 0.00 | 0.00 | 0.00 | 91 | 1009.1 |
| 20260509100146 | 72 | 135 | 5.2 | 10.4 | 0.00 | 0.00 | 0.00 | 91 | 1008.8 |
| 20260509095650 | 72 | 160 | 4.3 | 7.8 | 0.00 | 0.00 | 0.00 | 91 | 1009.1 |
| 20260509095146 | 72 | 161 | 2.6 | 6.1 | 0.00 | 0.00 | 0.00 | 91 | 1009.1 |
| 20260509094648 | 72 | 76 | 2.6 | 7.8 | 0.00 | 0.00 | 0.00 | 91 | 1009.1 |
| 20260509094146 | 72 | 128 | 7.0 | 8.7 | 0.00 | 0.00 | 0.00 | 91 | 1009.1 |
| 20260509093648 | 72 | 154 | 6.1 | 11.3 | 0.00 | 0.00 | 0.00 | 91 | 1009.1 |
| 20260509093149 | 72 | 152 | 4.3 | 6.1 | 0.00 | 0.00 | 0.00 | 91 | 1009.1 |
| 20260509092648 | 72 | 146 | 5.2 | 7.8 | 0.00 | 0.00 | 0.00 | 91 | 1009.1 |
| 20260509092147 | 72 | 125 | 3.5 | 7.0 | 0.00 | 0.00 | 0.00 | 90 | 1009.1 |
| 20260509091646 | 72 | 145 | 7.0 | 9.6 | 0.00 | 0.00 | 0.00 | 90 | 1009.1 |
| 20260509091147 | 72 | 149 | 6.1 | 7.8 | 0.00 | 0.00 | 0.00 | 90 | 1009.1 |
| 20260509090646 | 72 | 150 | 2.6 | 5.2 | 0.00 | 0.00 | 0.00 | 90 | 1009.5 |
| 20260509090151 | 72 | 144 | 3.5 | 7.8 | 0.00 | 0.00 | 0.00 | 90 | 1009.1 |
| 20260509085647 | 72 | 147 | 2.6 | 8.7 | 0.00 | 0.00 | 0.00 | 89 | 1009.5 |
| 20260509085148 | 72 | 163 | 2.6 | 8.7 | 0.00 | 0.00 | 0.00 | 89 | 1009.5 |
| 20260509084646 | 72 | 165 | 6.1 | 7.8 | 0.00 | 0.00 | 0.00 | 89 | 1009.8 |
| 20260509084146 | 72 | 150 | 4.3 | 7.0 | 0.00 | 0.00 | 0.00 | 89 | 1009.8 |
| 20260509083648 | 72 | 147 | 2.6 | 6.1 | 0.00 | 0.00 | 0.00 | 89 | 1009.8 |
| 20260509083148 | 72 | 146 | 4.3 | 7.0 | 0.00 | 0.00 | 0.00 | 90 | 1010.2 |
| 20260509082646 | 72 | 213 | 2.6 | 7.0 | 0.00 | 0.00 | 0.00 | 90 | 1010.2 |
| 20260509082147 | 72 | 150 | 3.5 | 6.1 | 0.00 | 0.00 | 0.00 | 89 | 1010.2 |
| 20260509081650 | 72 | 157 | 2.6 | 7.0 | 0.00 | 0.00 | 0.00 | 89 | 1010.5 |
| 20260509081150 | 72 | 158 | 2.6 | 5.2 | 0.00 | 0.00 | 0.00 | 89 | 1010.5 |
| 20260509080648 | 72 | 191 | 0.9 | 5.2 | 0.00 | 0.00 | 0.00 | 89 | 1010.5 |
| 20260509080148 | 72 | 117 | 3.5 | 6.1 | 0.00 | 0.00 | 0.00 | 89 | 1010.5 |
| 20260509075648 | 72 | 151 | 1.7 | 6.1 | 0.00 | 0.00 | 0.00 | 89 | 1010.8 |
| 20260509075148 | 72 | 153 | 2.6 | 6.1 | 0.00 | 0.00 | 0.00 | 89 | 1010.2 |
| 20260509074647 | 72 | 111 | 4.3 | 7.0 | 0.00 | 0.00 | 0.00 | 89 | 1010.2 |
| 20260509074147 | 72 | 118 | 2.6 | 5.2 | 0.00 | 0.00 | 0.00 | 88 | 1010.5 |
| 20260509073647 | 72 | 144 | 3.5 | 5.2 | 0.00 | 0.00 | 0.00 | 88 | 1011.2 |
| 20260509073148 | 72 | 160 | 3.5 | 4.3 | 0.00 | 0.00 | 0.00 | 88 | 1011.2 |
| 20260509072647 | 72 | 135 | 0.0 | 3.5 | 0.00 | 0.00 | 0.00 | 88 | 1011.2 |
| 20260509072148 | 72 | 328 | 1.7 | 2.6 | 0.00 | 0.00 | 0.00 | 89 | 1011.2 |
| 20260509071647 | 72 | 155 | 0.0 | 4.3 | 0.00 | 0.00 | 0.00 | 89 | 1011.2 |
| 20260509071147 | 72 | 158 | 0.0 | 3.5 | 0.00 | 0.00 | 0.00 | 90 | 1011.2 |
| 20260509070646 | 72 | 299 | 1.7 | 2.6 | 0.00 | 0.00 | 0.00 | 90 | 1011.2 |
| 20260509070150 | 72 | 50 | 0.9 | 4.3 | 0.00 | 0.00 | 0.00 | 90 | 1011.2 |
| 20260509065649 | 72 | 29 | 2.6 | 4.3 | 0.00 | 0.00 | 0.00 | 91 | 1011.5 |
| 20260509065146 | 72 | 85 | 0.0 | 2.6 | 0.00 | 0.00 | 0.00 | 91 | 1011.5 |
| 20260509064648 | 72 | 45 | 1.7 | 2.6 | 0.00 | 0.00 | 0.00 | 91 | 1011.5 |
| 20260509064147 | 72 | 2 | 1.7 | 3.5 | 0.00 | 0.00 | 0.00 | 93 | 1011.5 |
| 20260509063647 | 71 | 348 | 3.5 | 4.3 | 0.00 | 0.00 | 0.00 | 93 | 1011.9 |
| 20260509063147 | 71 | 323 | 4.3 | 4.3 | 0.00 | 0.00 | 0.00 | 94 | 1011.9 |
| 20260509062650 | 71 | 333 | 2.6 | 7.0 | 0.00 | 0.00 | 0.00 | 94 | 1011.9 |
| 20260509062146 | 71 | 337 | 3.5 | 4.3 | 0.00 | 0.00 | 0.00 | 93 | 1011.9 |
| 20260509061647 | 71 | 13 | 3.5 | 5.2 | 0.00 | 0.00 | 0.00 | 93 | 1011.5 |
| 20260509061149 | 71 | 8 | 1.7 | 3.5 | 0.00 | 0.00 | 0.00 | 93 | 1011.5 |
| 20260509060646 | 71 | 19 | 1.7 | 3.5 | 0.00 | 0.00 | 0.00 | 95 | 1011.5 |
| 20260509060149 | 71 | 336 | 0.0 | 2.6 | 0.00 | 0.00 | 0.00 | 96 | 1011.9 |
| 20260509055646 | 71 | 337 | 1.7 | 1.7 | 0.00 | 0.00 | 0.00 | 96 | 1011.9 |
| 20260509055147 | 70 | 306 | 0.9 | 2.6 | 0.00 | 0.00 | 0.00 | 97 | 1012.2 |
| 20260509054647 | 70 | 318 | 2.6 | 2.6 | 0.00 | 0.00 | 0.00 | 97 | 1012.2 |
| 20260509054146 | 70 | 315 | 2.6 | 3.5 | 0.00 | 0.00 | 0.00 | 96 | 1012.2 |
| 20260509053647 | 71 | 310 | 1.7 | 2.6 | 0.00 | 0.00 | 0.00 | 95 | 1011.9 |
| 20260509053147 | 71 | 269 | 0.0 | 0.9 | 0.00 | 0.00 | 0.00 | 95 | 1011.9 |
| 20260509052646 | 71 | 239 | 0.9 | 1.7 | 0.00 | 0.00 | 0.00 | 95 | 1011.9 |
| 20260509052148 | 71 | 251 | 0.9 | 1.7 | 0.00 | 0.00 | 0.00 | 95 | 1011.9 |